| time (UTC) | temp F | wind direction | speed knots | gust knots | rain 1hr in | rain 24hr in | rain mn in | humidity % | barometer mb |
| 20260509221423 | 71 | 319 | 7.8 | 11.3 | 0.00 | 0.00 | 0.00 | 30 | 1007.8 |
| 20260509220918 | 71 | 15 | 4.3 | 6.1 | 0.00 | 0.00 | 0.00 | 30 | 1007.6 |
| 20260509220415 | 71 | 289 | 9.6 | 13.0 | 0.00 | 0.00 | 0.00 | 29 | 1007.8 |
| 20260509215911 | 72 | 325 | 13.0 | 20.0 | 0.00 | 0.00 | 0.00 | 29 | 1007.7 |
| 20260509215406 | 72 | 316 | 7.8 | 12.2 | 0.00 | 0.00 | 0.00 | 30 | 1007.5 |
| 20260509214904 | 72 | 342 | 9.6 | 12.2 | 0.00 | 0.00 | 0.00 | 31 | 1007.6 |
| 20260509214401 | 72 | 310 | 7.8 | 9.6 | 0.00 | 0.00 | 0.00 | 31 | 1007.4 |
| 20260509213858 | 72 | 326 | 6.1 | 7.8 | 0.00 | 0.00 | 0.00 | 31 | 1007.6 |
| 20260509213359 | 72 | 304 | 7.8 | 9.6 | 0.00 | 0.00 | 0.00 | 31 | 1007.4 |
| 20260509212857 | 72 | 298 | 9.6 | 13.0 | 0.00 | 0.00 | 0.00 | 30 | 1007.4 |
| 20260509212354 | 72 | 285 | 8.7 | 11.3 | 0.00 | 0.00 | 0.00 | 29 | 1007.1 |
| 20260509211850 | 73 | 312 | 10.4 | 15.6 | 0.00 | 0.00 | 0.00 | 30 | 1007.3 |
| 20260509211341 | 72 | 309 | 8.7 | 9.6 | 0.00 | 0.00 | 0.00 | 31 | 1007.2 |
| 20260509210837 | 72 | 307 | 7.8 | 9.6 | 0.00 | 0.00 | 0.00 | 31 | 1007.2 |
| 20260509210335 | 72 | 348 | 7.0 | 8.7 | 0.00 | 0.00 | 0.00 | 33 | 1007.3 |
| 20260509205834 | 73 | 292 | 7.0 | 8.7 | 0.00 | 0.00 | 0.00 | 33 | 1007.3 |
| 20260509205329 | 72 | 333 | 6.1 | 8.7 | 0.00 | 0.00 | 0.00 | 34 | 1007.2 |
| 20260509204826 | 73 | 231 | 5.2 | 7.0 | 0.00 | 0.00 | 0.00 | 34 | 1007.1 |
| 20260509204322 | 72 | 330 | 4.3 | 6.1 | 0.00 | 0.00 | 0.00 | 34 | 1007.2 |
| 20260509203819 | 73 | 248 | 11.3 | 13.9 | 0.00 | 0.00 | 0.00 | 34 | 1007.3 |
| 20260509203315 | 72 | 311 | 4.3 | 6.1 | 0.00 | 0.00 | 0.00 | 37 | 1007.1 |
| 20260509202811 | 72 | 270 | 10.4 | 13.9 | 0.00 | 0.00 | 0.00 | 38 | 1007.2 |
| 20260509202308 | 72 | 307 | 9.6 | 14.8 | 0.00 | 0.00 | 0.00 | 38 | 1007.1 |
| 20260509201806 | 72 | 275 | 3.5 | 7.0 | 0.00 | 0.00 | 0.00 | 38 | 1007.3 |
| 20260509201259 | 71 | 304 | 7.0 | 9.6 | 0.00 | 0.00 | 0.00 | 39 | 1007.1 |
| 20260509200754 | 70 | 304 | 7.0 | 9.6 | 0.00 | 0.00 | 0.00 | 40 | 1007.3 |
| 20260509200250 | 70 | 277 | 7.8 | 9.6 | 0.00 | 0.00 | 0.00 | 40 | 1007.2 |
| 20260509195747 | 70 | 305 | 7.0 | 9.6 | 0.00 | 0.00 | 0.00 | 40 | 1007.3 |
| 20260509195242 | 70 | 246 | 7.8 | 9.6 | 0.00 | 0.00 | 0.00 | 40 | 1007.2 |
| 20260509194741 | 70 | 289 | 9.6 | 12.2 | 0.00 | 0.00 | 0.00 | 40 | 1007.0 |
| 20260509194238 | 70 | 9 | 5.2 | 7.0 | 0.00 | 0.00 | 0.00 | 39 | 1007.2 |
| 20260509193735 | 71 | 303 | 9.6 | 15.6 | 0.00 | 0.00 | 0.00 | 40 | 1007.3 |
| 20260509193235 | 70 | 328 | 7.8 | 9.6 | 0.00 | 0.00 | 0.00 | 40 | 1007.2 |
| 20260509192731 | 70 | 300 | 15.6 | 19.1 | 0.00 | 0.00 | 0.00 | 39 | 1007.2 |
| 20260509192226 | 70 | 73 | 7.0 | 13.0 | 0.00 | 0.00 | 0.00 | 39 | 1007.4 |
| 20260509191722 | 71 | 294 | 8.7 | 13.9 | 0.00 | 0.00 | 0.00 | 40 | 1006.9 |
| 20260509191219 | 71 | 297 | 8.7 | 11.3 | 0.00 | 0.00 | 0.00 | 39 | 1007.1 |
| 20260509190715 | 70 | 249 | 7.0 | 11.3 | 0.00 | 0.00 | 0.00 | 40 | 1007.1 |
| 20260509190212 | 70 | 303 | 7.8 | 15.6 | 0.00 | 0.00 | 0.00 | 40 | 1007.0 |
| 20260509185710 | 70 | 324 | 6.1 | 8.7 | 0.00 | 0.00 | 0.00 | 40 | 1007.0 |
| 20260509185205 | 72 | 297 | 6.1 | 11.3 | 0.00 | 0.00 | 0.00 | 39 | 1006.9 |
| 20260509184703 | 71 | 272 | 8.7 | 11.3 | 0.00 | 0.00 | 0.00 | 38 | 1006.7 |
| 20260509184200 | 71 | 280 | 7.8 | 9.6 | 0.00 | 0.00 | 0.00 | 38 | 1006.8 |
| 20260509183656 | 71 | 253 | 6.1 | 8.7 | 0.00 | 0.00 | 0.00 | 37 | 1006.8 |
| 20260509183151 | 71 | 322 | 5.2 | 7.0 | 0.00 | 0.00 | 0.00 | 37 | 1006.8 |
| 20260509182647 | 69 | 286 | 7.0 | 9.6 | 0.00 | 0.00 | 0.00 | 36 | 1006.8 |
| 20260509182145 | 69 | 278 | 8.7 | 11.3 | 0.00 | 0.00 | 0.00 | 36 | 1006.7 |
| 20260509181643 | 69 | 325 | 6.1 | 7.8 | 0.00 | 0.00 | 0.00 | 36 | 1006.5 |
| 20260509181140 | 69 | 5 | 8.7 | 9.6 | 0.00 | 0.00 | 0.00 | 34 | 1006.6 |
| 20260509180637 | 70 | 317 | 8.7 | 12.2 | 0.00 | 0.00 | 0.00 | 33 | 1006.5 |
| 20260509180133 | 69 | 291 | 6.1 | 7.0 | 0.00 | 0.00 | 0.00 | 33 | 1006.6 |
| 20260509175629 | 69 | 314 | 12.2 | 15.6 | 0.00 | 0.00 | 0.00 | 33 | 1006.5 |
| 20260509175126 | 69 | 303 | 4.3 | 7.8 | 0.00 | 0.00 | 0.00 | 32 | 1006.7 |
| 20260509174622 | 69 | 317 | 7.0 | 11.3 | 0.00 | 0.00 | 0.00 | 33 | 1006.5 |
| 20260509174117 | 69 | 310 | 10.4 | 12.2 | 0.00 | 0.00 | 0.00 | 33 | 1006.7 |
| 20260509173613 | 70 | 4 | 7.0 | 8.7 | 0.00 | 0.00 | 0.00 | 32 | 1006.6 |
| 20260509173104 | 70 | 4 | 10.4 | 13.0 | 0.00 | 0.00 | 0.00 | 32 | 1006.8 |
| 20260509172601 | 70 | 305 | 7.0 | 9.6 | 0.00 | 0.00 | 0.00 | 31 | 1006.9 |
| 20260509172057 | 70 | 309 | 11.3 | 12.2 | 0.00 | 0.00 | 0.00 | 31 | 1006.7 |
| 20260509171553 | 70 | 303 | 12.2 | 13.0 | 0.00 | 0.00 | 0.00 | 31 | 1006.6 |
| 20260509171049 | 71 | 317 | 8.7 | 11.3 | 0.00 | 0.00 | 0.00 | 30 | 1006.6 |
| 20260509170545 | 71 | 305 | 13.9 | 21.7 | 0.00 | 0.00 | 0.00 | 29 | 1006.7 |
| 20260509170041 | 73 | 316 | 10.4 | 15.6 | 0.00 | 0.00 | 0.00 | 29 | 1006.6 |
| 20260509165540 | 73 | 306 | 4.3 | 6.1 | 0.00 | 0.00 | 0.00 | 28 | 1006.5 |
| 20260509165035 | 71 | 290 | 5.2 | 7.0 | 0.00 | 0.00 | 0.00 | 28 | 1006.5 |
| 20260509164532 | 71 | 9 | 7.0 | 9.6 | 0.00 | 0.00 | 0.00 | 29 | 1006.5 |
| 20260509164027 | 71 | 303 | 6.1 | 7.0 | 0.00 | 0.00 | 0.00 | 30 | 1006.6 |
| 20260509163526 | 71 | 310 | 3.5 | 6.1 | 0.00 | 0.00 | 0.00 | 30 | 1006.5 |
| 20260509163026 | 70 | 301 | 5.2 | 7.0 | 0.00 | 0.00 | 0.00 | 30 | 1006.4 |
| 20260509162524 | 70 | 289 | 3.5 | 5.2 | 0.00 | 0.00 | 0.00 | 30 | 1006.5 |
| 20260509162019 | 71 | 340 | 6.1 | 12.2 | 0.00 | 0.00 | 0.00 | 30 | 1006.4 |
| 20260509161516 | 72 | 305 | 8.7 | 11.3 | 0.00 | 0.00 | 0.00 | 31 | 1006.4 |
| 20260509161016 | 71 | 323 | 5.2 | 6.1 | 0.00 | 0.00 | 0.00 | 30 | 1006.5 |
| 20260509160512 | 70 | 308 | 10.4 | 12.2 | 0.00 | 0.00 | 0.00 | 31 | 1006.6 |
| 20260509160008 | 70 | 338 | 6.1 | 8.7 | 0.00 | 0.00 | 0.00 | 31 | 1006.8 |
| 20260509155504 | 70 | 288 | 7.0 | 9.6 | 0.00 | 0.00 | 0.00 | 30 | 1006.6 |
| 20260509155000 | 69 | 304 | 12.2 | 14.8 | 0.00 | 0.00 | 0.00 | 32 | 1006.5 |
| 20260509154457 | 69 | 323 | 11.3 | 13.9 | 0.00 | 0.00 | 0.00 | 32 | 1006.4 |
| 20260509153954 | 69 | 296 | 7.0 | 11.3 | 0.00 | 0.00 | 0.00 | 33 | 1006.4 |
| 20260509153451 | 70 | 300 | 8.7 | 13.0 | 0.00 | 0.00 | 0.00 | 32 | 1006.3 |
| 20260509152948 | 71 | 299 | 6.1 | 9.6 | 0.00 | 0.00 | 0.00 | 34 | 1006.5 |
| 20260509152443 | 70 | 312 | 3.5 | 5.2 | 0.00 | 0.00 | 0.00 | 34 | 1006.3 |
| 20260509151941 | 70 | 283 | 6.1 | 7.0 | 0.00 | 0.00 | 0.00 | 34 | 1006.5 |
| 20260509151437 | 70 | 248 | 5.2 | 6.1 | 0.00 | 0.00 | 0.00 | 35 | 1006.5 |
| 20260509150935 | 69 | 341 | 3.5 | 3.5 | 0.00 | 0.00 | 0.00 | 35 | 1006.4 |
| 20260509150432 | 69 | 271 | 3.5 | 5.2 | 0.00 | 0.00 | 0.00 | 38 | 1006.4 |
| 20260509145931 | 69 | 302 | 4.3 | 6.1 | 0.00 | 0.00 | 0.00 | 37 | 1006.3 |
| 20260509145431 | 68 | 287 | 3.5 | 3.5 | 0.00 | 0.00 | 0.00 | 37 | 1006.4 |
| 20260509144926 | 68 | 331 | 5.2 | 7.0 | 0.00 | 0.00 | 0.00 | 39 | 1006.1 |
| 20260509144423 | 67 | 294 | 4.3 | 5.2 | 0.00 | 0.00 | 0.00 | 41 | 1006.2 |
| 20260509143920 | 67 | 298 | 3.5 | 3.5 | 0.00 | 0.00 | 0.00 | 41 | 1006.3 |
| 20260509143418 | 66 | 347 | 3.5 | 5.2 | 0.00 | 0.00 | 0.00 | 42 | 1006.2 |
| 20260509142914 | 66 | 248 | 4.3 | 6.1 | 0.00 | 0.00 | 0.00 | 43 | 1006.4 |
| 20260509142411 | 67 | 281 | 4.3 | 6.1 | 0.00 | 0.00 | 0.00 | 42 | 1006.2 |
| 20260509141906 | 66 | 314 | 0.9 | 1.7 | 0.00 | 0.00 | 0.00 | 47 | 1006.2 |
| 20260509141403 | 65 | 314 | 0.9 | 0.9 | 0.00 | 0.00 | 0.00 | 49 | 1006.2 |
| 20260509140900 | 65 | 248 | 1.7 | 2.6 | 0.00 | 0.00 | 0.00 | 49 | 1006.2 |
| 20260509140357 | 64 | 337 | 0.9 | 0.9 | 0.00 | 0.00 | 0.00 | 53 | 1006.3 |
| 20260509135855 | 63 | 318 | 0.9 | 0.9 | 0.00 | 0.00 | 0.00 | 56 | 1006.3 |
| 20260509135352 | 63 | 357 | 1.7 | 1.7 | 0.00 | 0.00 | 0.00 | 56 | 1006.3 |
| 20260509134849 | 62 | 273 | 2.6 | 3.5 | 0.00 | 0.00 | 0.00 | 57 | 1006.1 |
| 20260509134346 | 61 | 342 | 2.6 | 3.5 | 0.00 | 0.00 | 0.00 | 62 | 1006.2 |
| 20260509133843 | 61 | 306 | 0.9 | 1.7 | 0.00 | 0.00 | 0.00 | 63 | 1005.9 |
| 20260509133340 | 60 | 338 | 0.9 | 0.9 | 0.00 | 0.00 | 0.00 | 65 | 1005.9 |
| 20260509132839 | 59 | 303 | 1.7 | 2.6 | 0.00 | 0.00 | 0.00 | 67 | 1005.9 |
| 20260509132337 | 59 | 253 | 3.5 | 6.1 | 0.00 | 0.00 | 0.00 | 68 | 1005.7 |
| 20260509131833 | 59 | 350 | 2.6 | 3.5 | 0.00 | 0.00 | 0.00 | 68 | 1005.7 |
| 20260509131330 | 58 | 295 | 2.6 | 2.6 | 0.00 | 0.00 | 0.00 | 71 | 1005.5 |
| 20260509130826 | 57 | 273 | 4.3 | 5.2 | 0.00 | 0.00 | 0.00 | 72 | 1005.6 |
| 20260509130322 | 57 | 274 | 4.3 | 5.2 | 0.00 | 0.00 | 0.00 | 74 | 1005.7 |
| 20260509125819 | 57 | 295 | 1.7 | 1.7 | 0.00 | 0.00 | 0.00 | 75 | 1005.7 |
| 20260509125315 | 56 | 229 | 3.5 | 5.2 | 0.00 | 0.00 | 0.00 | 77 | 1005.6 |
| 20260509124812 | 55 | 291 | 1.7 | 1.7 | 0.00 | 0.00 | 0.00 | 79 | 1005.8 |
| 20260509124308 | 55 | 274 | 1.7 | 1.7 | 0.00 | 0.00 | 0.00 | 80 | 1005.7 |
| 20260509123807 | 54 | 286 | 1.7 | 1.7 | 0.00 | 0.00 | 0.00 | 81 | 1005.7 |
| 20260509123304 | 54 | 295 | 1.7 | 1.7 | 0.00 | 0.00 | 0.00 | 83 | 1005.7 |
| 20260509122759 | 53 | 264 | 1.7 | 2.6 | 0.00 | 0.00 | 0.00 | 84 | 1005.7 |
| 20260509122257 | 53 | 269 | 0.9 | 1.7 | 0.00 | 0.00 | 0.00 | 84 | 1005.7 |
| 20260509121754 | 52 | 244 | 1.7 | 1.7 | 0.00 | 0.00 | 0.00 | 84 | 1005.4 |
| 20260509121251 | 52 | 283 | 0.9 | 0.9 | 0.00 | 0.00 | 0.00 | 85 | 1005.3 |
| 20260509120749 | 52 | 293 | 0.9 | 0.9 | 0.00 | 0.00 | 0.00 | 86 | 1005.4 |
| 20260509120246 | 51 | 268 | 1.7 | 1.7 | 0.00 | 0.00 | 0.00 | 86 | 1005.4 |
| 20260509115744 | 51 | 288 | 0.9 | 0.9 | 0.00 | 0.00 | 0.00 | 88 | 1005.4 |
| 20260509115241 | 50 | 278 | 1.7 | 1.7 | 0.00 | 0.00 | 0.00 | 88 | 1005.5 |
| 20260509114739 | 50 | 313 | 0.9 | 1.7 | 0.00 | 0.00 | 0.00 | 89 | 1005.4 |
| 20260509114238 | 50 | 230 | 1.7 | 2.6 | 0.00 | 0.00 | 0.00 | 90 | 1005.5 |
| 20260509113736 | 50 | 291 | 0.9 | 0.9 | 0.00 | 0.00 | 0.00 | 90 | 1005.4 |
| 20260509113233 | 50 | 220 | 1.7 | 1.7 | 0.00 | 0.00 | 0.00 | 90 | 1005.3 |
| 20260509112730 | 50 | 324 | 0.0 | 0.9 | 0.00 | 0.00 | 0.00 | 91 | 1005.3 |
| 20260509112227 | 50 | 289 | 0.9 | 0.9 | 0.00 | 0.00 | 0.00 | 91 | 1005.2 |
| 20260509111723 | 50 | 323 | 0.0 | 0.0 | 0.00 | 0.00 | 0.00 | 91 | 1005.1 |
| 20260509111220 | 50 | 288 | 1.7 | 2.6 | 0.00 | 0.00 | 0.00 | 91 | 1005.1 |
| 20260509110718 | 50 | 216 | 0.9 | 1.7 | 0.00 | 0.00 | 0.00 | 91 | 1005.0 |
| 20260509110214 | 50 | 211 | 0.9 | 1.7 | 0.00 | 0.00 | 0.00 | 91 | 1005.1 |
| 20260509105713 | 50 | 248 | 1.7 | 1.7 | 0.00 | 0.00 | 0.00 | 91 | 1004.9 |
| 20260509105210 | 50 | 287 | 0.9 | 1.7 | 0.00 | 0.00 | 0.00 | 91 | 1005.1 |
| 20260509104707 | 50 | 260 | 1.7 | 1.7 | 0.00 | 0.00 | 0.00 | 91 | 1005.1 |
| 20260509104204 | 50 | 278 | 0.9 | 0.9 | 0.00 | 0.00 | 0.00 | 91 | 1005.0 |
| 20260509103702 | 50 | 287 | 1.7 | 1.7 | 0.00 | 0.00 | 0.00 | 90 | 1005.2 |
| 20260509103159 | 50 | 285 | 0.9 | 0.9 | 0.00 | 0.00 | 0.00 | 90 | 1004.9 |
| 20260509102657 | 51 | 315 | 0.9 | 0.9 | 0.00 | 0.00 | 0.00 | 90 | 1005.0 |
| 20260509102153 | 51 | 315 | 0.9 | 0.9 | 0.00 | 0.00 | 0.00 | 90 | 1005.0 |
| 20260509101649 | 51 | 320 | 0.0 | 0.0 | 0.00 | 0.00 | 0.00 | 90 | 1004.8 |
| 20260509101146 | 51 | 253 | 2.6 | 3.5 | 0.00 | 0.00 | 0.00 | 90 | 1004.9 |
| 20260509100644 | 51 | 314 | 0.9 | 1.7 | 0.00 | 0.00 | 0.00 | 89 | 1005.0 |
| 20260509100141 | 51 | 295 | 0.9 | 1.7 | 0.00 | 0.00 | 0.00 | 89 | 1004.7 |
| 20260509095637 | 51 | 323 | 0.0 | 0.0 | 0.00 | 0.00 | 0.00 | 89 | 1004.8 |
| 20260509095135 | 51 | 290 | 1.7 | 1.7 | 0.00 | 0.00 | 0.00 | 89 | 1004.9 |
| 20260509094631 | 51 | 327 | 0.9 | 1.7 | 0.00 | 0.00 | 0.00 | 89 | 1005.0 |
| 20260509094128 | 51 | 324 | 0.9 | 0.9 | 0.00 | 0.00 | 0.00 | 89 | 1005.2 |
| 20260509093627 | 51 | 319 | 0.9 | 0.9 | 0.00 | 0.00 | 0.00 | 89 | 1004.9 |
| 20260509093123 | 52 | 279 | 1.7 | 1.7 | 0.00 | 0.00 | 0.00 | 88 | 1004.9 |
| 20260509092621 | 52 | 294 | 1.7 | 2.6 | 0.00 | 0.00 | 0.00 | 88 | 1004.9 |
| 20260509092120 | 52 | 259 | 2.6 | 2.6 | 0.00 | 0.00 | 0.00 | 88 | 1004.9 |
| 20260509091618 | 52 | 236 | 3.5 | 3.5 | 0.00 | 0.00 | 0.00 | 88 | 1004.9 |
| 20260509091113 | 52 | 269 | 3.5 | 3.5 | 0.00 | 0.00 | 0.00 | 88 | 1005.0 |
| 20260509090611 | 52 | 257 | 1.7 | 3.5 | 0.00 | 0.00 | 0.00 | 88 | 1004.9 |
| 20260509090109 | 52 | 280 | 3.5 | 3.5 | 0.00 | 0.00 | 0.00 | 88 | 1005.1 |
| 20260509085606 | 52 | 303 | 1.7 | 2.6 | 0.00 | 0.00 | 0.00 | 88 | 1005.0 |
| 20260509085101 | 52 | 319 | 1.7 | 1.7 | 0.00 | 0.00 | 0.00 | 88 | 1004.9 |
| 20260509084559 | 52 | 258 | 3.5 | 3.5 | 0.00 | 0.00 | 0.00 | 88 | 1004.9 |
| 20260509084056 | 53 | 266 | 4.3 | 6.1 | 0.00 | 0.00 | 0.00 | 87 | 1004.8 |
| 20260509083553 | 53 | 221 | 1.7 | 1.7 | 0.00 | 0.00 | 0.00 | 87 | 1004.7 |
| 20260509083050 | 53 | 220 | 7.0 | 8.7 | 0.00 | 0.00 | 0.00 | 87 | 1004.6 |
| 20260509082547 | 53 | 267 | 2.6 | 6.1 | 0.00 | 0.00 | 0.00 | 87 | 1004.7 |
| 20260509082044 | 53 | 238 | 4.3 | 5.2 | 0.00 | 0.00 | 0.00 | 87 | 1004.7 |
| 20260509081541 | 53 | 237 | 3.5 | 3.5 | 0.00 | 0.00 | 0.00 | 87 | 1004.5 |
| 20260509081038 | 53 | 257 | 3.5 | 5.2 | 0.00 | 0.00 | 0.00 | 87 | 1004.7 |
| 20260509080536 | 53 | 182 | 5.2 | 7.0 | 0.00 | 0.00 | 0.00 | 86 | 1005.0 |
| 20260509080034 | 53 | 252 | 6.1 | 7.8 | 0.00 | 0.00 | 0.00 | 86 | 1004.9 |
| 20260509075531 | 53 | 260 | 4.3 | 6.1 | 0.00 | 0.00 | 0.00 | 86 | 1005.0 |
| 20260509075029 | 54 | 216 | 3.5 | 5.2 | 0.00 | 0.00 | 0.00 | 86 | 1004.9 |
| 20260509074526 | 54 | 275 | 5.2 | 6.1 | 0.00 | 0.00 | 0.00 | 85 | 1004.8 |
| 20260509074022 | 54 | 301 | 3.5 | 3.5 | 0.00 | 0.00 | 0.00 | 85 | 1004.8 |
| 20260509073519 | 54 | 227 | 2.6 | 2.6 | 0.00 | 0.00 | 0.00 | 85 | 1004.9 |
| 20260509073015 | 54 | 269 | 5.2 | 7.0 | 0.00 | 0.00 | 0.00 | 84 | 1005.0 |
| 20260509072512 | 54 | 265 | 4.3 | 5.2 | 0.00 | 0.00 | 0.00 | 84 | 1005.0 |
| 20260509072009 | 54 | 240 | 3.5 | 3.5 | 0.00 | 0.00 | 0.00 | 84 | 1005.1 |
| 20260509071505 | 55 | 275 | 3.5 | 3.5 | 0.00 | 0.00 | 0.00 | 84 | 1005.1 |
| 20260509071003 | 55 | 293 | 2.6 | 3.5 | 0.00 | 0.00 | 0.00 | 83 | 1005.3 |
| 20260509070500 | 55 | 257 | 1.7 | 2.6 | 0.00 | 0.00 | 0.00 | 83 | 1005.3 |
| 20260509065955 | 55 | 295 | 4.3 | 6.1 | 0.00 | 0.00 | 0.00 | 82 | 1005.4 |
| 20260509065451 | 55 | 211 | 2.6 | 3.5 | 0.00 | 0.00 | 0.00 | 82 | 1005.3 |
| 20260509064948 | 55 | 296 | 1.7 | 3.5 | 0.00 | 0.00 | 0.00 | 82 | 1005.3 |
| 20260509064446 | 55 | 250 | 3.5 | 3.5 | 0.00 | 0.00 | 0.00 | 82 | 1005.4 |
| 20260509063944 | 55 | 288 | 4.3 | 5.2 | 0.00 | 0.00 | 0.00 | 82 | 1005.3 |
| 20260509063444 | 55 | 245 | 6.1 | 7.8 | 0.00 | 0.00 | 0.00 | 82 | 1005.3 |
| 20260509062941 | 55 | 242 | 4.3 | 6.1 | 0.00 | 0.00 | 0.00 | 82 | 1005.4 |
| 20260509062439 | 55 | 262 | 3.5 | 5.2 | 0.00 | 0.00 | 0.00 | 82 | 1005.4 |
| 20260509061937 | 55 | 246 | 4.3 | 5.2 | 0.00 | 0.00 | 0.00 | 82 | 1005.6 |
| 20260509061434 | 56 | 239 | 3.5 | 3.5 | 0.00 | 0.00 | 0.00 | 81 | 1005.5 |
| 20260509060931 | 56 | 275 | 2.6 | 2.6 | 0.00 | 0.00 | 0.00 | 81 | 1005.6 |
| 20260509060428 | 56 | 250 | 4.3 | 5.2 | 0.00 | 0.00 | 0.00 | 81 | 1005.6 |
| 20260509055923 | 56 | 266 | 2.6 | 3.5 | 0.00 | 0.00 | 0.00 | 81 | 1005.6 |
| 20260509055419 | 56 | 251 | 6.1 | 7.8 | 0.00 | 0.00 | 0.00 | 80 | 1005.6 |
| 20260509054915 | 57 | 228 | 4.3 | 6.1 | 0.00 | 0.00 | 0.00 | 80 | 1005.5 |
| 20260509054412 | 57 | 254 | 6.1 | 7.8 | 0.00 | 0.00 | 0.00 | 80 | 1005.5 |
| 20260509053911 | 57 | 221 | 4.3 | 6.1 | 0.00 | 0.00 | 0.00 | 80 | 1005.4 |
| 20260509053408 | 57 | 286 | 3.5 | 3.5 | 0.00 | 0.00 | 0.00 | 79 | 1005.5 |
| 20260509052906 | 57 | 253 | 2.6 | 2.6 | 0.00 | 0.00 | 0.00 | 79 | 1005.6 |
| 20260509052403 | 57 | 264 | 5.2 | 7.0 | 0.00 | 0.00 | 0.00 | 79 | 1005.6 |
| 20260509051901 | 57 | 186 | 3.5 | 7.0 | 0.00 | 0.00 | 0.00 | 78 | 1005.5 |
| 20260509051359 | 57 | 190 | 1.7 | 3.5 | 0.00 | 0.00 | 0.00 | 78 | 1005.8 |
| 20260509050855 | 58 | 269 | 2.6 | 2.6 | 0.00 | 0.00 | 0.00 | 78 | 1005.8 |
| 20260509050352 | 58 | 308 | 1.7 | 2.6 | 0.00 | 0.00 | 0.00 | 77 | 1005.9 |
| 20260509045848 | 58 | 304 | 1.7 | 1.7 | 0.00 | 0.00 | 0.00 | 77 | 1005.7 |
| 20260509045345 | 58 | 252 | 2.6 | 3.5 | 0.00 | 0.00 | 0.00 | 76 | 1005.9 |
| 20260509044843 | 58 | 217 | 3.5 | 5.2 | 0.00 | 0.00 | 0.00 | 76 | 1005.9 |
| 20260509044340 | 58 | 220 | 3.5 | 5.2 | 0.00 | 0.00 | 0.00 | 76 | 1006.1 |
| 20260509043837 | 58 | 266 | 4.3 | 6.1 | 0.00 | 0.00 | 0.00 | 75 | 1006.1 |
| 20260509043332 | 58 | 260 | 6.1 | 7.0 | 0.00 | 0.00 | 0.00 | 75 | 1006.1 |
| 20260509042829 | 59 | 297 | 3.5 | 3.5 | 0.00 | 0.00 | 0.00 | 74 | 1006.1 |
| 20260509042325 | 59 | 241 | 4.3 | 6.1 | 0.00 | 0.00 | 0.00 | 73 | 1006.4 |
| 20260509041822 | 59 | 321 | 4.3 | 6.1 | 0.00 | 0.00 | 0.00 | 73 | 1006.3 |
| 20260509041319 | 59 | 227 | 4.3 | 5.2 | 0.00 | 0.00 | 0.00 | 72 | 1006.3 |
| 20260509040817 | 59 | 282 | 3.5 | 5.2 | 0.00 | 0.00 | 0.00 | 72 | 1006.3 |
| 20260509040314 | 59 | 254 | 6.1 | 11.3 | 0.00 | 0.00 | 0.00 | 71 | 1006.1 |
| 20260509035811 | 60 | 251 | 3.5 | 3.5 | 0.00 | 0.00 | 0.00 | 70 | 1006.3 |
| 20260509035309 | 60 | 312 | 3.5 | 5.2 | 0.00 | 0.00 | 0.00 | 69 | 1006.3 |
| 20260509034805 | 60 | 237 | 3.5 | 3.5 | 0.00 | 0.00 | 0.00 | 69 | 1006.1 |
| 20260509034303 | 60 | 204 | 4.3 | 6.1 | 0.00 | 0.00 | 0.00 | 68 | 1006.3 |
| 20260509033759 | 60 | 290 | 2.6 | 3.5 | 0.00 | 0.00 | 0.00 | 67 | 1006.3 |
| 20260509033256 | 60 | 313 | 2.6 | 3.5 | 0.00 | 0.00 | 0.00 | 66 | 1006.4 |
| 20260509032753 | 60 | 241 | 6.1 | 7.0 | 0.00 | 0.00 | 0.00 | 65 | 1006.1 |
| 20260509032250 | 61 | 213 | 5.2 | 6.1 | 0.00 | 0.00 | 0.00 | 64 | 1006.1 |
| 20260509031748 | 61 | 230 | 8.7 | 11.3 | 0.00 | 0.00 | 0.00 | 62 | 1006.0 |
| 20260509031245 | 61 | 194 | 4.3 | 7.0 | 0.00 | 0.00 | 0.00 | 60 | 1005.8 |
| 20260509030743 | 61 | 258 | 4.3 | 7.0 | 0.00 | 0.00 | 0.00 | 58 | 1005.8 |
| 20260509030240 | 61 | 249 | 7.8 | 8.7 | 0.00 | 0.00 | 0.00 | 56 | 1005.7 |
| 20260509025737 | 61 | 208 | 3.5 | 6.1 | 0.00 | 0.00 | 0.00 | 53 | 1005.5 |
| 20260509025233 | 61 | 266 | 5.2 | 6.1 | 0.00 | 0.00 | 0.00 | 51 | 1005.4 |
| 20260509024728 | 62 | 211 | 3.5 | 3.5 | 0.00 | 0.00 | 0.00 | 49 | 1005.5 |
| 20260509024224 | 62 | 205 | 4.3 | 5.2 | 0.00 | 0.00 | 0.00 | 48 | 1005.5 |
| 20260509023722 | 62 | 231 | 7.0 | 7.8 | 0.00 | 0.00 | 0.00 | 48 | 1005.3 |
| 20260509023219 | 62 | 187 | 3.5 | 5.2 | 0.00 | 0.00 | 0.00 | 48 | 1005.2 |
| 20260509022714 | 63 | 232 | 5.2 | 6.1 | 0.00 | 0.00 | 0.00 | 48 | 1005.3 |
| 20260509022213 | 63 | 222 | 2.6 | 3.5 | 0.00 | 0.00 | 0.00 | 48 | 1005.2 |
| 20260509021709 | 63 | 194 | 6.1 | 7.0 | 0.00 | 0.00 | 0.00 | 47 | 1005.2 |
| 20260509021207 | 63 | 196 | 3.5 | 5.2 | 0.00 | 0.00 | 0.00 | 47 | 1005.2 |
| 20260509020705 | 64 | 225 | 3.5 | 5.2 | 0.00 | 0.00 | 0.00 | 47 | 1005.1 |
| 20260509020201 | 64 | 259 | 3.5 | 5.2 | 0.00 | 0.00 | 0.00 | 46 | 1005.1 |
| 20260509015700 | 64 | 244 | 3.5 | 3.5 | 0.00 | 0.00 | 0.00 | 46 | 1005.2 |
| 20260509015158 | 64 | 218 | 2.6 | 2.6 | 0.00 | 0.00 | 0.00 | 45 | 1005.0 |
| 20260509014654 | 65 | 246 | 1.7 | 2.6 | 0.00 | 0.00 | 0.00 | 45 | 1005.0 |
| 20260509014150 | 65 | 230 | 2.6 | 2.6 | 0.00 | 0.00 | 0.00 | 45 | 1004.9 |
| 20260509013647 | 65 | 202 | 1.7 | 2.6 | 0.00 | 0.00 | 0.00 | 44 | 1005.1 |
| 20260509013143 | 66 | 259 | 6.1 | 7.8 | 0.00 | 0.00 | 0.00 | 44 | 1005.0 |
| 20260509012640 | 66 | 206 | 2.6 | 3.5 | 0.00 | 0.00 | 0.00 | 43 | 1004.9 |
| 20260509012137 | 66 | 246 | 1.7 | 2.6 | 0.00 | 0.00 | 0.00 | 43 | 1005.1 |
| 20260509011635 | 67 | 277 | 2.6 | 5.2 | 0.00 | 0.00 | 0.00 | 42 | 1005.0 |
| 20260509011132 | 67 | 288 | 4.3 | 7.0 | 0.00 | 0.00 | 0.00 | 42 | 1005.1 |
| 20260509010629 | 67 | 204 | 5.2 | 7.8 | 0.00 | 0.00 | 0.00 | 41 | 1004.8 |
| 20260509010126 | 68 | 212 | 3.5 | 6.1 | 0.00 | 0.00 | 0.00 | 40 | 1005.1 |
| 20260509005624 | 68 | 223 | 7.8 | 11.3 | 0.00 | 0.00 | 0.00 | 39 | 1005.1 |
| 20260509005119 | 69 | 242 | 5.2 | 7.0 | 0.00 | 0.00 | 0.00 | 37 | 1005.1 |
| 20260509004615 | 70 | 238 | 3.5 | 5.2 | 0.00 | 0.00 | 0.00 | 31 | 1005.0 |
| 20260509004113 | 70 | 251 | 4.3 | 5.2 | 0.00 | 0.00 | 0.00 | 29 | 1005.1 |
| 20260509003611 | 71 | 329 | 3.5 | 5.2 | 0.00 | 0.00 | 0.00 | 29 | 1005.1 |
| 20260509003108 | 71 | 263 | 3.5 | 5.2 | 0.00 | 0.00 | 0.00 | 29 | 1005.1 |
| 20260509002606 | 71 | 265 | 1.7 | 1.7 | 0.00 | 0.00 | 0.00 | 28 | 1005.0 |
| 20260509002103 | 71 | 290 | 1.7 | 1.7 | 0.00 | 0.00 | 0.00 | 28 | 1005.1 |
| 20260509001600 | 71 | 215 | 5.2 | 6.1 | 0.00 | 0.00 | 0.00 | 28 | 1005.2 |
| 20260509001055 | 72 | 244 | 3.5 | 5.2 | 0.00 | 0.00 | 0.00 | 28 | 1005.2 |
| 20260509000554 | 72 | 232 | 1.7 | 2.6 | 0.00 | 0.00 | 0.00 | 28 | 1005.3 |
| 20260509000050 | 72 | 284 | 3.5 | 5.2 | 0.00 | 0.00 | 0.00 | 27 | 1005.2 |
| 20260508235548 | 72 | 324 | 2.6 | 2.6 | 0.00 | 0.00 | 0.00 | 27 | 1005.2 |
| 20260508235044 | 72 | 326 | 2.6 | 3.5 | 0.00 | 0.00 | 0.00 | 27 | 1005.4 |
| 20260508234541 | 72 | 332 | 3.5 | 3.5 | 0.00 | 0.00 | 0.00 | 27 | 1005.3 |
| 20260508234038 | 72 | 290 | 2.6 | 3.5 | 0.00 | 0.00 | 0.00 | 27 | 1005.4 |
| 20260508233532 | 72 | 249 | 1.7 | 2.6 | 0.00 | 0.00 | 0.00 | 27 | 1005.4 |
| 20260508233029 | 72 | 288 | 3.5 | 6.1 | 0.00 | 0.00 | 0.00 | 27 | 1005.5 |
| 20260508232526 | 72 | 273 | 3.5 | 3.5 | 0.00 | 0.00 | 0.00 | 27 | 1005.6 |
| 20260508232023 | 73 | 303 | 3.5 | 3.5 | 0.00 | 0.00 | 0.00 | 26 | 1005.6 |
| 20260508231520 | 73 | 269 | 4.3 | 6.1 | 0.00 | 0.00 | 0.00 | 26 | 1005.5 |
| 20260508231017 | 72 | 294 | 2.6 | 3.5 | 0.00 | 0.00 | 0.00 | 27 | 1005.7 |
| 20260508230514 | 73 | 292 | 2.6 | 3.5 | 0.00 | 0.00 | 0.00 | 26 | 1005.8 |
| 20260508230010 | 72 | 263 | 1.7 | 2.6 | 0.00 | 0.00 | 0.00 | 26 | 1005.8 |
| 20260508225508 | 74 | 253 | 5.2 | 6.1 | 0.00 | 0.00 | 0.00 | 26 | 1005.6 |
| 20260508225004 | 73 | 287 | 1.7 | 1.7 | 0.00 | 0.00 | 0.00 | 26 | 1005.9 |
| 20260508224502 | 73 | 278 | 3.5 | 3.5 | 0.00 | 0.00 | 0.00 | 26 | 1005.7 |
| 20260508223959 | 74 | 258 | 5.2 | 7.0 | 0.00 | 0.00 | 0.00 | 26 | 1005.8 |
| 20260508223457 | 73 | 219 | 3.5 | 6.1 | 0.00 | 0.00 | 0.00 | 26 | 1005.9 |
| 20260508222954 | 74 | 311 | 2.6 | 3.5 | 0.00 | 0.00 | 0.00 | 26 | 1006.0 |
| 20260508222452 | 73 | 322 | 4.3 | 6.1 | 0.00 | 0.00 | 0.00 | 25 | 1005.8 |
| 20260508221948 | 73 | 246 | 3.5 | 5.2 | 0.00 | 0.00 | 0.00 | 26 | 1005.9 |